This is the latest recevied weather packets stored in our database for station/object KI6PPU. If no packets are shown the sender has not sent any weather packets the latest 10 day(s).
| Time | Temp. | Humidity | Pressure | Rain* | Wind** | Luminosity | Snow |
|---|---|---|---|---|---|---|---|
| 1777628784 | 10.56° C | 95% | 1015.5 hPa | 0 mm | - | 0 W/m² | - |
| 1777628480 | 10.56° C | 95% | 1015.6 hPa | 0 mm | - | 0 W/m² | - |
| 1777628177 | 10.56° C | 95% | 1015.5 hPa | 0 mm | - | 0 W/m² | - |
| 1777627873 | 10.56° C | 95% | 1015.5 hPa | 0 mm | - | 0 W/m² | - |
| 1777627571 | 10.56° C | 95% | 1015.6 hPa | 0 mm | - | 0 W/m² | - |
| 1777627266 | 11.11° C | 95% | 1015.7 hPa | 0 mm | - | 0 W/m² | - |
| 1777626963 | 11.11° C | 95% | 1015.4 hPa | 0 mm | - | 0 W/m² | - |
| 1777626660 | 11.11° C | 95% | 1015.6 hPa | 0 mm | - | 0 W/m² | - |
| 1777626355 | 11.11° C | 95% | 1015.6 hPa | 0 mm | - | 0 W/m² | - |
| 1777626054 | 11.11° C | 95% | 1015.7 hPa | 0 mm | - | 0 W/m² | - |
| 1777625749 | 10.56° C | 94% | 1015.8 hPa | 0 mm | - | 0 W/m² | - |
| 1777625445 | 11.11° C | 94% | 1015.8 hPa | 0 mm | - | 0 W/m² | - |
| 1777625141 | 11.11° C | 94% | 1015.8 hPa | 0 mm | - | 0 W/m² | - |
| 1777624838 | 11.67° C | 94% | 1015.9 hPa | 0 mm | - | 0 W/m² | - |
| 1777624533 | 11.11° C | 94% | 1015.9 hPa | 0 mm | - | 0 W/m² | - |
| 1777624228 | 11.11° C | 94% | 1015.8 hPa | 0 mm | - | 0 W/m² | - |
| 1777623922 | 11.11° C | 94% | 1015.7 hPa | 0 mm | - | 0 W/m² | - |
| 1777623618 | 11.67° C | 94% | 1015.8 hPa | 0 mm | - | 0 W/m² | - |
| 1777623316 | 11.11° C | 94% | 1015.8 hPa | 0 mm | - | 0 W/m² | - |
| 1777623013 | 11.67° C | 93% | 1016 hPa | 0 mm | - | 0 W/m² | - |
| 1777622710 | 11.67° C | 93% | 1016.1 hPa | 0 mm | - | 0 W/m² | - |
| 1777622406 | 11.67° C | 93% | 1015.9 hPa | 0 mm | - | 0 W/m² | - |
| 1777622103 | 11.67° C | 93% | 1016 hPa | 0 mm | - | 0 W/m² | - |
| 1777621798 | 12.22° C | 93% | 1015.8 hPa | 0 mm | - | 0 W/m² | - |
| 1777621495 | 12.22° C | 92% | 1016 hPa | 0 mm | - | 0 W/m² | - |
* Rain latest hour (hover to see other rain measurements)
** Current wind speed in m/s (hover to see current wind gust speed)